This demonstration page uses our WeatherBlox Daily Observations layout. Learn more.

Left ArrowRight Arrow

34.16533, -84.80231

Hourly Observations for March 22, 2020

Temp ( °F °C ) Dew Point ( °F °C ) Humidity (%) Winds ( mph kmh ) Pressure ( in mb ) Visibility ( mi km ) Precip ( " mm )
12:53 am 00:53 Clear 50 10 43 6.1 77 77 N 5 7 30.30 1026 10 16 0.00 0.00
1:53 am 01:53 Clear 48 8.9 41 5 77 77 VRB 3 6 30.30 1026 10 16 0.00 0.00
2:53 am 02:53 Clear 47 8.3 41 5 80 80 Calm 30.29 1026 10 16 0.00 0.00
3:53 am 03:53 Clear 45 7.2 40 4.4 83 83 Calm 30.28 1025 10 16 0.00 0.00
4:53 am 04:53 Clear 45 7.2 41 5 86 86 Calm 30.25 1024 10 16 0.00 0.00
5:53 am 05:53 Clear 45 7.2 41 5 86 86 Calm 30.23 1024 10 16 0.00 0.00
6:53 am 06:53 Clear 45 7.2 40 4.4 83 83 N 3 6 30.26 1025 10 16 0.00 0.00
7:53 am 07:53 Partly Cloudy 44 6.7 41 5 89 89 Calm 30.27 1025 10 16 0.00 0.00
8:02 am 08:02 Mostly Cloudy 45 7.2 41 5 86 86 N 3 6 30.31 1026 10 16 0.00 0.00
8:53 am 08:53 Cloudy 47 8.3 42 5.6 83 83 Calm 30.31 1026 10 16 0.00 0.00
9:26 am 09:26 Partly Cloudy 47 8.3 42 5.6 83 83 Calm 30.32 1027 10 16 0.00 0.00
9:53 am 09:53 Mostly Sunny 48 8.9 43 6.1 83 83 Calm 30.29 1026 10 16 0.00 0.00
10:36 am 10:36 Mostly Cloudy 49 9.4 43 6.1 80 80 Calm 30.32 1027 10 16 0.00 0.00
10:53 am 10:53 Mostly Cloudy 50 10 44 6.7 80 80 Calm 30.29 1026 10 16 0.00 0.00
11:07 am 11:07 Partly Cloudy 51 10.6 44 6.7 77 77 Calm 30.33 1027 10 16 0.00 0.00
11:53 am 11:53 Mostly Sunny 53 11.7 45 7.2 74 74 Calm 30.30 1026 10 16 0.00 0.00
12:53 pm 12:53 Sunny 57 13.9 48 8.9 72 72 Calm 30.30 1026 10 16 0.00 0.00
1:53 pm 13:53 Partly Cloudy 62 16.7 51 10.6 67 67 SE 6 9 30.29 1026 10 16 0.00 0.00
2:53 pm 14:53 Partly Cloudy 63 17.2 52 11.1 68 68 SE 7 11 30.27 1025 10 16 0.00 0.00
3:53 pm 15:53 Mostly Sunny 65 18.3 53 11.7 66 66 ESE 10 17 30.22 1023 10 16 0.00 0.00
4:53 pm 16:53 Mostly Cloudy 64 17.8 52 11.1 65 65 E 13 20 30.22 1023 10 16 0.00 0.00
5:53 pm 17:53 Cloudy 61 16.1 52 11.1 72 72 ESE 8 13 30.23 1024 10 16 0.00 0.00
6:53 pm 18:53 Cloudy 59 15 51 10.6 75 75 ESE 9 15 30.23 1024 10 16 0.00 0.00
7:53 pm 19:53 Cloudy 58 14.4 50 10 75 75 E 7 11 30.24 1024 10 16 0.00 0.00
8:53 pm 20:53 Cloudy 57 13.9 50 10 78 78 ESE 8 13 30.24 1024 10 16 0.00 0.00
9:39 pm 21:39 Cloudy 57 13.9 50 10 78 78 E 7 11 30.27 1025 10 16 0.00 0.00
9:53 pm 21:53 Cloudy 57 13.9 50 10 78 78 E 8 13 30.26 1025 10 16 0.00 0.00
10:53 pm 22:53 Cloudy 56 13.3 50 10 81 81 ESE 9 15 30.27 1025 10 16 0.00 0.00
11:53 pm 23:53 Cloudy 56 13.3 50 10 81 81 E 9 15 30.27 1025 10 16 0.00 0.00

Powered by AerisWeather